When you browse on this site, cookies collect data to enhance your experience and personalize the content and advertising you see.
Visit our Privacy Policy to learn more. By continuing to use the site, you agree to this use of cookies and data.
  • In Latvia
  • List of Countries
  • For 7 days
  • Water Temperature
  • Weather Map
  • Weather Widgets
  • user-avatar
    Login

    Hourly Weather Hajfa

    Today, 27 February, Thursday

    Time Temperature Precipitation Wind Pressure Humidity
    00:00 +12°C° 0 mm 2 mps 762 mmHg 87%
    01:00 +12°C° 0 mm 2 mps 762 mmHg 87%
    02:00 +11°C° 0 mm 3 mps 762 mmHg 86%
    03:00 +11°C° 0 mm 3 mps 762 mmHg 86%
    04:00 +11°C° 0 mm 4 mps 762 mmHg 85%
    05:00 +11°C° 0 mm 4 mps 762 mmHg 85%
    06:00 +12°C° 0 mm 4 mps 762 mmHg 82%
    07:00 +13°C° 0 mm 3 mps 762 mmHg 79%
    08:00 +14°C° 0 mm 3 mps 762 mmHg 76%
    09:00 +16°C° 0 mm 3 mps 762 mmHg 71%
    10:00 +18°C° 0 mm 2 mps 762 mmHg 65%
    11:00 +19°C° 0 mm 2 mps 762 mmHg 59%
    12:00 +20°C° 0 mm 2 mps 762 mmHg 58%
    13:00 +20°C° 0 mm 2 mps 761 mmHg 56%
    14:00 +21°C° 0 mm 2 mps 760 mmHg 55%
    15:00 +19°C° 0 mm 2 mps 760 mmHg 62%
    16:00 +18°C° 0 mm 2 mps 760 mmHg 69%
    17:00 +17°C° 0 mm 3 mps 760 mmHg 76%
    18:00 +16°C° 0 mm 2 mps 760 mmHg 75%
    19:00 +16°C° 0 mm 2 mps 760 mmHg 73%
    20:00 +15°C° 0 mm 2 mps 760 mmHg 72%
    21:00 +15°C° 0 mm 2 mps 760 mmHg 69%
    22:00 +15°C° 0 mm 2 mps 760 mmHg 66%
    23:00 +15°C° 0 mm 2 mps 759 mmHg 63%

    Tomorrow, 28 February, Friday

    Time Temperature Precipitation Wind Pressure Humidity
    00:00 +15°C° 0 mm 2 mps 759 mmHg 63%
    01:00 +15°C° 0 mm 1 mps 759 mmHg 64%
    02:00 +15°C° 0 mm 1 mps 759 mmHg 64%
    03:00 +15°C° 0 mm 1 mps 758 mmHg 65%
    04:00 +14°C° 0 mm 1 mps 758 mmHg 65%
    05:00 +14°C° 0 mm 1 mps 758 mmHg 66%
    06:00 +15°C° 0 mm 1 mps 758 mmHg 65%
    07:00 +16°C° 0 mm 1 mps 758 mmHg 65%
    08:00 +18°C° 0 mm 1 mps 758 mmHg 64%
    09:00 +19°C° 0 mm 1 mps 758 mmHg 59%
    10:00 +21°C° 0 mm 1 mps 758 mmHg 54%
    11:00 +22°C° 0 mm 1 mps 758 mmHg 49%
    12:00 +22°C° 0 mm 1 mps 758 mmHg 50%
    13:00 +21°C° 0 mm 2 mps 758 mmHg 50%
    14:00 +21°C° 0 mm 2 mps 757 mmHg 51%
    15:00 +20°C° 0 mm 2 mps 757 mmHg 57%
    16:00 +19°C° 0 mm 2 mps 757 mmHg 62%
    17:00 +18°C° 0 mm 1 mps 757 mmHg 68%
    18:00 +18°C° 0 mm 1 mps 757 mmHg 67%
    19:00 +16°C° 0 mm 1 mps 757 mmHg 65%
    20:00 +14°C° 0 mm 0 mps 757 mmHg 64%
    21:00 +15°C° 0 mm 1 mps 757 mmHg 62%
    22:00 +15°C° 0 mm 1 mps 757 mmHg 59%
    23:00 +15°C° 0 mm 2 mps 757 mmHg 56%

    Day after tomorrow, 29 February, Saturday

    Time Temperature Precipitation Wind Pressure Humidity
    00:00 +14°C° 0 mm 2 mps 757 mmHg 57%
    01:00 +14°C° 0 mm 2 mps 756 mmHg 57%
    02:00 +14°C° 0 mm 2 mps 756 mmHg 58%
    03:00 +13°C° 0.2 mm 3 mps 756 mmHg 68%
    04:00 +13°C° 0.2 mm 4 mps 756 mmHg 78%
    05:00 +13°C° 0.2 mm 5 mps 756 mmHg 88%
    06:00 +13°C° 0.2 mm 5 mps 757 mmHg 86%
    07:00 +14°C° 0.2 mm 6 mps 757 mmHg 85%
    08:00 +14°C° 0.2 mm 6 mps 757 mmHg 84%
    09:00 +14°C° 0.1 mm 6 mps 757 mmHg 79%
    10:00 +15°C° 0.1 mm 6 mps 758 mmHg 75%
    11:00 +15°C° 0.1 mm 6 mps 758 mmHg 71%
    12:00 +15°C° 0.1 mm 7 mps 757 mmHg 70%
    13:00 +16°C° 0.1 mm 7 mps 757 mmHg 70%
    14:00 +16°C° 0.1 mm 7 mps 757 mmHg 69%
    15:00 +15°C° 0.1 mm 7 mps 757 mmHg 72%
    16:00 +15°C° 0.1 mm 7 mps 757 mmHg 75%
    17:00 +15°C° 0.1 mm 7 mps 757 mmHg 78%
    18:00 +13°C° 0.3 mm 8 mps 757 mmHg 80%
    19:00 +13°C° 0.3 mm 8 mps 757 mmHg 82%
    20:00 +13°C° 0.3 mm 9 mps 757 mmHg 84%
    21:00 +13°C° 0.2 mm 9 mps 757 mmHg 80%
    22:00 +12°C° 0.2 mm 9 mps 757 mmHg 76%
    23:00 +12°C° 0.2 mm 9 mps 757 mmHg 72%

    1 March, Sunday

    Time Temperature Precipitation Wind Pressure Humidity
    00:00 +12°C° 0 mm 9 mps 757 mmHg 72%
    01:00 +11°C° 0 mm 8 mps 757 mmHg 72%
    02:00 +11°C° 0 mm 7 mps 757 mmHg 71%
    03:00 +11°C° 0 mm 7 mps 757 mmHg 73%
    04:00 +11°C° 0 mm 7 mps 758 mmHg 74%
    05:00 +11°C° 0 mm 6 mps 758 mmHg 75%
    06:00 +11°C° 0 mm 6 mps 758 mmHg 72%
    07:00 +13°C° 0 mm 6 mps 759 mmHg 69%
    08:00 +14°C° 0 mm 6 mps 759 mmHg 66%
    09:00 +14°C° 0 mm 6 mps 760 mmHg 65%
    10:00 +15°C° 0 mm 6 mps 760 mmHg 63%
    11:00 +16°C° 0 mm 6 mps 760 mmHg 61%
    12:00 +16°C° 0 mm 5 mps 760 mmHg 61%
    13:00 +16°C° 0 mm 5 mps 760 mmHg 61%
    14:00 +16°C° 0 mm 5 mps 759 mmHg 61%
    15:00 +15°C° 0 mm 4 mps 760 mmHg 64%
    16:00 +14°C° 0 mm 4 mps 760 mmHg 66%
    17:00 +14°C° 0 mm 4 mps 760 mmHg 69%
    18:00 +13°C° 0 mm 4 mps 760 mmHg 70%
    19:00 +12°C° 0 mm 3 mps 761 mmHg 71%
    20:00 +11°C° 0 mm 3 mps 761 mmHg 72%
    21:00 +12°C° 0 mm 2 mps 761 mmHg 73%
    22:00 +12°C° 0 mm 2 mps 761 mmHg 75%
    23:00 +12°C° 0 mm 2 mps 761 mmHg 76%

    2 March, Monday

    Time Temperature Precipitation Wind Pressure Humidity
    00:00 +12°C° 0 mm 2 mps 761 mmHg 77%
    01:00 +10°C° 0 mm 2 mps 761 mmHg 78%
    02:00 +10°C° 0 mm 2 mps 761 mmHg 78%
    03:00 +11°C° 0 mm 1 mps 761 mmHg 78%
    04:00 +11°C° 0 mm 1 mps 761 mmHg 78%
    05:00 +10°C° 0 mm 1 mps 761 mmHg 78%
    06:00 +11°C° 0 mm 1 mps 761 mmHg 76%
    07:00 +12°C° 0 mm 2 mps 761 mmHg 74%
    08:00 +13°C° 0 mm 2 mps 762 mmHg 73%
    09:00 +15°C° 0 mm 2 mps 762 mmHg 69%
    10:00 +16°C° 0 mm 2 mps 761 mmHg 65%
    11:00 +17°C° 0 mm 2 mps 761 mmHg 62%
    12:00 +17°C° 0 mm 2 mps 761 mmHg 63%
    13:00 +17°C° 0 mm 3 mps 761 mmHg 65%
    14:00 +17°C° 0 mm 3 mps 760 mmHg 66%
    15:00 +16°C° 0 mm 3 mps 760 mmHg 68%
    16:00 +16°C° 0 mm 2 mps 760 mmHg 70%
    17:00 +15°C° 0 mm 2 mps 760 mmHg 73%
    18:00 +14°C° 0 mm 2 mps 761 mmHg 74%
    19:00 +13°C° 0 mm 2 mps 761 mmHg 76%
    20:00 +12°C° 0 mm 1 mps 761 mmHg 78%
    21:00 +12°C° 0 mm 1 mps 761 mmHg 78%
    22:00 +12°C° 0 mm 1 mps 762 mmHg 78%
    23:00 +11°C° 0 mm 1 mps 762 mmHg 79%

    3 March, Tuesday

    Time Temperature Precipitation Wind Pressure Humidity
    00:00 +11°C° 0 mm 1 mps 761 mmHg 79%
    01:00 +11°C° 0 mm 1 mps 761 mmHg 78%
    02:00 +11°C° 0 mm 1 mps 761 mmHg 78%
    03:00 +11°C° 0 mm 1 mps 761 mmHg 78%
    04:00 +11°C° 0 mm 1 mps 761 mmHg 77%
    05:00 +10°C° 0 mm 1 mps 761 mmHg 77%
    06:00 +12°C° 0 mm 2 mps 761 mmHg 74%
    07:00 +13°C° 0 mm 2 mps 761 mmHg 71%
    08:00 +14°C° 0 mm 2 mps 762 mmHg 69%
    09:00 +16°C° 0 mm 3 mps 762 mmHg 64%
    10:00 +18°C° 0 mm 3 mps 761 mmHg 59%
    11:00 +20°C° 0 mm 3 mps 761 mmHg 54%
    12:00 +20°C° 0 mm 4 mps 761 mmHg 55%
    13:00 +20°C° 0 mm 5 mps 760 mmHg 57%
    14:00 +21°C° 0 mm 5 mps 760 mmHg 58%
    15:00 +20°C° 0 mm 5 mps 760 mmHg 63%
    16:00 +17°C° 0 mm 6 mps 759 mmHg 69%
    17:00 +16°C° 0 mm 6 mps 759 mmHg 74%
    18:00 +16°C° 0 mm 6 mps 759 mmHg 71%
    19:00 +16°C° 0 mm 5 mps 759 mmHg 67%
    20:00 +15°C° 0 mm 5 mps 759 mmHg 64%
    21:00 +15°C° 0 mm 5 mps 759 mmHg 59%
    22:00 +15°C° 0 mm 4 mps 759 mmHg 54%
    23:00 +15°C° 0 mm 4 mps 759 mmHg 49%
    Show more